TimeIST,TemperatureF,Dew PointF,Humidity,Sea Level PressureIn,VisibilityMPH,Wind Direction,Wind SpeedMPH,Gust SpeedMPH,PrecipitationIn,Events,Conditions,WindDirDegrees,DateUTC
12:00 AM,89.6,35.6,15,29.68,2.5,WNW,8.1,-,N/A,,Haze,290,2013-05-09 18:30:00
1:00 AM,87.8,39.2,18,29.65,2.5,NW,4.6,-,N/A,,Haze,310,2013-05-09 19:30:00
2:00 AM,86.0,39.2,19,29.65,2.5,WNW,4.6,-,N/A,,Haze,300,2013-05-09 20:30:00
2:30 AM,86,40,11,29.61,2,NW,4.6,,,,Haze,320,2013-05-09 21:00:00
3:01 AM,86.0,41.0,20,29.65,2.5,WNW,4.6,-,N/A,,Haze,300,2013-05-09 21:31:00
4:00 AM,84.2,41.0,22,29.65,2.5,NW,4.6,-,N/A,,Haze,310,2013-05-09 22:30:00
5:00 AM,86.0,41.0,20,29.65,2.5,NW,6.9,-,N/A,,Haze,320,2013-05-09 23:30:00
5:30 AM,87,46,15,29.59,2,NW,6.9,,,,Haze,320,2013-05-10 00:00:00
6:00 AM,86.0,42.8,22,29.68,2.5,NW,6.9,-,N/A,,Haze,320,2013-05-10 00:30:00
7:00 AM,87.8,44.6,22,29.71,2.5,NW,8.1,-,N/A,,Haze,320,2013-05-10 01:30:00
8:00 AM,89.6,46.4,22,29.71,2.5,Variable,8.1,-,N/A,,Haze,0,2013-05-10 02:30:00
8:30 AM,91,50,16,29.63,2,NW,9.2,,,,Haze,320,2013-05-10 03:00:00
8:30 AM,91.4,48.2,23,29.74,2.5,NW,8.1,-,N/A,,Haze,310,2013-05-10 03:00:00
9:00 AM,91.4,50.0,24,29.74,2.5,WNW,9.2,-,N/A,,Haze,300,2013-05-10 03:30:00
9:30 AM,91.4,51.8,26,29.74,2.5,NW,10.4,-,N/A,,Haze,310,2013-05-10 04:00:00
10:00 AM,93.2,50.0,23,29.74,2.5,WNW,11.5,-,N/A,,Haze,290,2013-05-10 04:30:00
11:00 AM,95.0,50.0,22,29.74,2.5,West,11.5,-,N/A,,Haze,280,2013-05-10 05:30:00
11:30 AM,95,52,15,29.65,2,WNW,11.5,,,,Haze,290,2013-05-10 06:00:00
2:00 PM,98.6,46.4,17,29.68,3.1,SW,6.9,-,N/A,,Haze,230,2013-05-10 08:30:00
2:30 PM,103,52,11,29.57,2,SW,11.5,,,,,230,2013-05-10 09:00:00
3:00 PM,98.6,44.6,16,29.68,3.1,WSW,11.5,-,N/A,,Haze,250,2013-05-10 09:30:00
4:00 PM,98.6,44.6,16,29.65,3.1,WSW,10.4,-,N/A,,Haze,240,2013-05-10 10:30:00
5:00 PM,98.6,41.0,14,29.65,3.1,NNW,6.9,-,N/A,,Haze,330,2013-05-10 11:30:00
5:30 PM,99,43,8,29.54,2,NW,6.9,,,,Haze,320,2013-05-10 12:00:00
6:00 PM,96.8,39.2,14,29.62,3.1,NW,3.5,-,N/A,,Haze,310,2013-05-10 12:30:00
7:00 PM,96.8,35.6,12,29.62,2.5,WSW,8.1,-,N/A,,Haze,250,2013-05-10 13:30:00
7:30 PM,95.0,37.4,13,29.62,2.2,WSW,3.5,-,N/A,,Haze,240,2013-05-10 14:00:00
8:00 PM,93.2,41.0,16,29.65,2.2,WSW,3.5,-,N/A,,Haze,240,2013-05-10 14:30:00
8:30 PM,91,51,16,29.54,1,Calm,Calm,,,,Haze,,2013-05-10 15:00:00
9:00 PM,91.4,41.0,17,29.65,2.2,Variable,2.3,-,N/A,,Haze,0,2013-05-10 15:30:00
10:00 PM,87.8,42.8,21,29.65,2.2,Calm,Calm,-,N/A,,Haze,0,2013-05-10 16:30:00
11:00 PM,89.6,42.8,20,29.68,2.2,West,5.8,-,N/A,,Haze,260,2013-05-10 17:30:00